QPF
0.02 0.02 0.03 0.03 0.02 0.02 0.03 0.02 0.02 0.01 0.01 0.00 0.00 0.00 0.00 0.00 0.00 0.00 0.01 0.00 0.00 0.00 0.00 0.00 0.01 0.01 0.01 0.01 0.02 0.02 0.02 0.02 0.02 0.03 0.03 0.03 0.04 0.04 0.03 0.02 0.01 0.01 0.01 0.01
0.02 0.03 0.04 0.03 0.02 0.03 0.03 0.03 0.02 0.01 0.01 0.00 0.00 0.00 0.00 0.00 0.00 0.00 0.00 0.00 0.01 0.01 0.00 0.00 0.01 0.01 0.01 0.01 0.02 0.02 0.02 0.02 0.03 0.03 0.03 0.03 0.03 0.04 0.03 0.02 0.02 0.01 0.01 0.01
0.02 0.02 0.04 0.03 0.02 0.03 0.03 0.03 0.02 0.02 0.01 0.00 0.00 0.00 0.00 0.00 0.00 0.00 0.00 0.00 0.01 0.01 0.01 0.01 0.01 0.01 0.01 0.01 0.01 0.02 0.02 0.02 0.02 0.03 0.03 0.03 0.03 0.03 0.02 0.02 0.02 0.02 0.02 0.01
0.03 0.03 0.04 0.03 0.02 0.02 0.02 0.02 0.02 0.02 0.02 0.01 0.01 0.00 0.00 0.00 0.00 0.00 0.01 0.01 0.01 0.01 0.01 0.01 0.01 0.01 0.01 0.02 0.02 0.02 0.02 0.01 0.02 0.02 0.03 0.03 0.02 0.02 0.02 0.02 0.01 0.01 0.01 0.01
0.05 0.03 0.02 0.01 0.02 0.02 0.02 0.02 0.03 0.03 0.02 0.02 0.01 0.00 0.01 0.01 0.01 0.01 0.01 0.01 0.01 0.01 0.01 0.01 0.01 0.01 0.01 0.01 0.02 0.02 0.02 0.01 0.01 0.02 0.02 0.02 0.02 0.02 0.01 0.01 0.01 0.01 0.01 0.01
0.05 0.03 0.02 0.02 0.01 0.02 0.02 0.02 0.02 0.03 0.02 0.02 0.02 0.02 0.01 0.01 0.01 0.01 0.01 0.01 0.01 0.01 0.01 0.01 0.01 0.01 0.01 0.01 0.02 0.02 0.02 0.01 0.02 0.02 0.02 0.02 0.02 0.01 0.01 0.01 0.01 0.01 0.01 0.01
0.04 0.03 0.02 0.02 0.01 0.01 0.02 0.02 0.02 0.02 0.03 0.03 0.03 0.02 0.01 0.01 0.01 0.01 0.01 0.01 0.01 0.01 0.01 0.01 0.01 0.02 0.01 0.01 0.01 0.02 0.03 0.02 0.01 0.02 0.01 0.01 0.01 0.01 0.01 0.01 0.01 0.02 0.02 0.01
0.02 0.02 0.02 0.01 0.01 0.01 0.02 0.01 0.02 0.02 0.02 0.02 0.03 0.02 0.01 0.01 0.01 0.01 0.01 0.01 0.01 0.01 0.01 0.01 0.01 0.01 0.01 0.01 0.01 0.02 0.03 0.02 0.01 0.01 0.01 0.02 0.01 0.01 0.02 0.02 0.02 0.02 0.02 0.02
0.01 0.01 0.01 0.01 0.02 0.01 0.01 0.01 0.01 0.01 0.01 0.02 0.02 0.02 0.02 0.01 0.01 0.02 0.01 0.01 0.01 0.01 0.01 0.01 0.01 0.01 0.02 0.02 0.02 0.04 0.03 0.02 0.01 0.01 0.02 0.01 0.01 0.02 0.02 0.02 0.02 0.02 0.02 0.02
0.01 0.01 0.01 0.01 0.01 0.01 0.01 0.01 0.01 0.01 0.01 0.02 0.03 0.03 0.03 0.02 0.02 0.02 0.02 0.01 0.01 0.01 0.01 0.01 0.01 0.01 0.02 0.03 0.03 0.05 0.03 0.02 0.02 0.02 0.02 0.02 0.02 0.02 0.02 0.02 0.02 0.02 0.02 0.01
0.01 0.00 0.00 0.01 0.01 0.01 0.01 0.01 0.02 0.01 0.01 0.02 0.02 0.03 0.02 0.02 0.02 0.02 0.02 0.01 0.01 0.02 0.02 0.02 0.02 0.02 0.03 0.03 0.04 0.06 0.04 0.03 0.03 0.03 0.03 0.03 0.03 0.02 0.02 0.02 0.02 0.02 0.02 0.02
0.01 0.01 0.02 0.01 0.02 0.02 0.02 0.02 0.02 0.02 0.02 0.02 0.02 0.02 0.02 0.02 0.02 0.02 0.02 0.01 0.01 0.02 0.02 0.03 0.02 0.02 0.03 0.04 0.05 0.06 0.05 0.04 0.03 0.03 0.03 0.03 0.03 0.04 0.03 0.03 0.02 0.02 0.02 0.02
0.02 0.01 0.02 0.02 0.02 0.02 0.02 0.02 0.02 0.02 0.02 0.02 0.01 0.01 0.01 0.01 0.02 0.02 0.02 0.02 0.01 0.02 0.02 0.02 0.02 0.02 0.03 0.03 0.04 0.07 0.06 0.05 0.04 0.04 0.03 0.03 0.03 0.03 0.04 0.04 0.03 0.02 0.02 0.01
0.01 0.01 0.01 0.01 0.02 0.02 0.03 0.03 0.02 0.02 0.02 0.02 0.01 0.01 0.01 0.01 0.01 0.02 0.02 0.02 0.02 0.01 0.01 0.02 0.02 0.03 0.03 0.03 0.03 0.06 0.07 0.07 0.05 0.04 0.04 0.04 0.03 0.03 0.03 0.03 0.03 0.03 0.03 0.02
0.01 0.02 0.02 0.02 0.02 0.02 0.02 0.03 0.03 0.02 0.02 0.02 0.01 0.01 0.01 0.01 0.01 0.01 0.02 0.02 0.02 0.01 0.01 0.02 0.02 0.03 0.03 0.03 0.04 0.05 0.07 0.07 0.06 0.05 0.04 0.04 0.04 0.04 0.04 0.03 0.03 0.03 0.03 0.03
0.01 0.01 0.01 0.02 0.02 0.02 0.02 0.02 0.02 0.02 0.02 0.02 0.01 0.01 0.01 0.01 0.01 0.01 0.01 0.01 0.01 0.01 0.01 0.01 0.02 0.02 0.02 0.03 0.03 0.04 0.05 0.06 0.05 0.05 0.04 0.04 0.04 0.04 0.03 0.03 0.03 0.02 0.02 0.02
0.02 0.01 0.01 0.01 0.01 0.01 0.01 0.01 0.01 0.01 0.01 0.01 0.01 0.01 0.01 0.01 0.01 0.01 0.01 0.01 0.00 0.00 0.01 0.01 0.01 0.02 0.02 0.02 0.02 0.03 0.04 0.04 0.04 0.04 0.04 0.03 0.03 0.03 0.02 0.02 0.02 0.01 0.01 0.02
0.02 0.02 0.01 0.01 0.01 0.01 0.01 0.01 0.01 0.01 0.01 0.01 0.01 0.01 0.01 0.01 0.01 0.01 0.01 0.00 0.00 0.00 0.01 0.01 0.01 0.02 0.02 0.02 0.02 0.02 0.03 0.03 0.03 0.03 0.03 0.03 0.03 0.03 0.02 0.01 0.01 0.01 0.01 0.01
0.01 0.01 0.01 0.01 0.01 0.01 0.01 0.01 0.01 0.01 0.01 0.01 0.01 0.01 0.01 0.01 0.02 0.01 0.01 0.00 0.00 0.01 0.01 0.01 0.01 0.01 0.02 0.02 0.02 0.02 0.02 0.02 0.02 0.02 0.02 0.02 0.02 0.02 0.02 0.01 0.01 0.01 0.01 0.01
0.01 0.01 0.00 0.00 0.00 0.00 0.00 0.00 0.00 0.00 0.00 0.00 0.01 0.01 0.01 0.01 0.01 0.01 0.00 0.00 0.00 0.01 0.01 0.01 0.01 0.01 0.01 0.01 0.01 0.02 0.02 0.02 0.01 0.02 0.02 0.01 0.02 0.02 0.02 0.01 0.01 0.01 0.01 0.01
0.01 0.01 0.00 0.00 0.00 0.00 0.00 0.00 0.00 0.00 0.00 0.00 0.01 0.01 0.01 0.01 0.01 0.01 0.00 0.01 0.01 0.01 0.01 0.01 0.01 0.01 0.01 0.02 0.01 0.01 0.02 0.02 0.02 0.02 0.02 0.02 0.02 0.02 0.02 0.01 0.01 0.01 0.01 0.01
0.01 0.00 0.00 0.00 0.00 0.00 0.00 0.00 0.00 0.00 0.00 0.00 0.01 0.01 0.01 0.01 0.01 0.01 0.01 0.01 0.01 0.01 0.01 0.01 0.01 0.01 0.02 0.02 0.02 0.02 0.01 0.01 0.01 0.02 0.02 0.02 0.02 0.01 0.01 0.01 0.01 0.01 0.01 0.01
0.00 0.00 0.00 0.00 0.00 0.00 0.00 0.00 0.00 0.00 0.00 0.00 0.01 0.01 0.01 0.01 0.01 0.01 0.01 0.01 0.01 0.01 0.01 0.01 0.01 0.02 0.02 0.02 0.01 0.02 0.02 0.02 0.01 0.01 0.01 0.01 0.01 0.01 0.01 0.01 0.01 0.01 0.01 0.01
0.00 0.00 0.00 0.00 0.00 0.00 0.00 0.00 0.00 0.00 0.00 0.01 0.01 0.01 0.01 0.01 0.01 0.01 0.01 0.01 0.01 0.01 0.01 0.01 0.02 0.02 0.02 0.01 0.01 0.01 0.01 0.02 0.01 0.01 0.01 0.01 0.01 0.01 0.01 0.01 0.01 0.01 0.01 0.01
0.00 0.00 0.00 0.00 0.00 0.00 0.00 0.00 0.00 0.00 0.00 0.01 0.01 0.01 0.01 0.01 0.01 0.01 0.01 0.01 0.01 0.01 0.01 0.01 0.02 0.02 0.02 0.01 0.01 0.01 0.01 0.01 0.01 0.01 0.01 0.01 0.01 0.01 0.01 0.01 0.01 0.01 0.01 0.01
0.00 0.00 0.00 0.00 0.00 0.00 0.00 0.00 0.00 0.01 0.01 0.01 0.01 0.01 0.01 0.01 0.01 0.01 0.01 0.01 0.01 0.01 0.02 0.02 0.02 0.02 0.02 0.02 0.01 0.01 0.01 0.01 0.02 0.01 0.01 0.01 0.01 0.01 0.01 0.01 0.01 0.01 0.01 0.01
0.00 0.00 0.00 0.00 0.00 0.01 0.01 0.01 0.01 0.01 0.01 0.01 0.01 0.01 0.01 0.01 0.01 0.01 0.01 0.02 0.02 0.02 0.02 0.02 0.02 0.02 0.02 0.02 0.01 0.01 0.01 0.01 0.02 0.01 0.01 0.01 0.01 0.01 0.01 0.01 0.01 0.01 0.01 0.01
MSLP
1027.31 1027.37 1027.28 1027.04 1026.61 1026.01 1025.24 1024.32 1023.30 1022.22 1021.13 1020.08 1019.10 1018.20 1017.37 1016.59 1015.82 1015.02 1014.17 1013.22 1012.19 1011.08 1009.92 1008.75 1007.60 1006.52 1005.52 1004.59 1003.74 1002.94 1002.17 1001.40 1000.63 999.87 999.13 998.45 997.87 997.42 997.16 997.10 997.25 997.62 998.21 998.97
1027.23 1027.09 1026.75 1026.24 1025.57 1024.77 1023.88 1022.94 1021.99 1021.06 1020.18 1019.36 1018.60 1017.89 1017.20 1016.49 1015.74 1014.91 1013.99 1012.97 1011.88 1010.72 1009.54 1008.37 1007.23 1006.14 1005.12 1004.14 1003.21 1002.31 1001.41 1000.51 999.62 998.76 997.96 997.24 996.66 996.24 996.02 996.00 996.20 996.60 997.20 997.98
1027.17 1026.86 1026.32 1025.59 1024.72 1023.77 1022.79 1021.84 1020.95 1020.15 1019.43 1018.79 1018.20 1017.63 1017.02 1016.35 1015.59 1014.73 1013.76 1012.69 1011.55 1010.38 1009.19 1008.02 1006.89 1005.79 1004.72 1003.67 1002.63 1001.58 1000.53 999.49 998.47 997.51 996.65 995.92 995.36 995.00 994.84 994.90 995.16 995.62 996.26 997.06
1027.04 1026.60 1025.91 1025.03 1024.02 1022.97 1021.95 1021.01 1020.19 1019.48 1018.89 1018.38 1017.90 1017.40 1016.83 1016.17 1015.38 1014.47 1013.45 1012.34 1011.18 1009.99 1008.80 1007.63 1006.47 1005.33 1004.18 1003.02 1001.83 1000.62 999.40 998.20 997.05 996.00 995.11 994.39 993.89 993.62 993.57 993.74 994.11 994.66 995.36 996.20
1026.68 1026.16 1025.39 1024.43 1023.36 1022.29 1021.28 1020.38 1019.63 1019.02 1018.52 1018.09 1017.67 1017.20 1016.64 1015.95 1015.12 1014.15 1013.08 1011.93 1010.74 1009.52 1008.31 1007.11 1005.89 1004.66 1003.39 1002.08 1000.71 999.30 997.90 996.54 995.28 994.18 993.28 992.62 992.23 992.09 992.20 992.52 993.03 993.70 994.49 995.40
1025.98 1025.42 1024.62 1023.65 1022.61 1021.58 1020.64 1019.83 1019.18 1018.66 1018.24 1017.88 1017.49 1017.02 1016.44 1015.71 1014.82 1013.80 1012.68 1011.48 1010.24 1008.99 1007.72 1006.44 1005.13 1003.76 1002.33 1000.81 999.24 997.64 996.05 994.55 993.20 992.07 991.20 990.65 990.40 990.44 990.75 991.26 991.95 992.76 993.68 994.67
1024.86 1024.30 1023.53 1022.63 1021.68 1020.77 1019.95 1019.28 1018.75 1018.34 1018.01 1017.70 1017.33 1016.86 1016.25 1015.47 1014.53 1013.46 1012.28 1011.03 1009.73 1008.41 1007.06 1005.67 1004.21 1002.67 1001.04 999.31 997.52 995.71 993.96 992.34 990.93 989.81 989.02 988.60 988.53 988.79 989.32 990.05 990.93 991.92 992.96 994.06
1023.34 1022.82 1022.13 1021.35 1020.55 1019.81 1019.17 1018.67 1018.29 1018.01 1017.78 1017.52 1017.18 1016.71 1016.07 1015.26 1014.28 1013.16 1011.93 1010.63 1009.27 1007.86 1006.40 1004.87 1003.24 1001.51 999.66 997.71 995.71 993.72 991.82 990.12 988.69 987.61 986.93 986.68 986.81 987.29 988.04 989.00 990.09 991.24 992.43 993.62
1021.53 1021.07 1020.50 1019.88 1019.27 1018.74 1018.31 1018.01 1017.80 1017.66 1017.53 1017.34 1017.03 1016.57 1015.92 1015.09 1014.08 1012.93 1011.66 1010.30 1008.88 1007.38 1005.81 1004.13 1002.34 1000.41 998.36 996.21 994.03 991.90 989.90 988.15 986.74 985.73 985.18 985.09 985.43 986.12 987.09 988.25 989.52 990.83 992.14 993.43
1019.59 1019.22 1018.79 1018.35 1017.95 1017.65 1017.45 1017.34 1017.31 1017.30 1017.27 1017.14 1016.87 1016.42 1015.78 1014.94 1013.92 1012.75 1011.46 1010.07 1008.60 1007.02 1005.35 1003.54 1001.60 999.52 997.31 995.01 992.70 990.47 988.43 986.68 985.31 984.40 983.98 984.05 984.56 985.44 986.59 987.91 989.32 990.75 992.16 993.53
1017.70 1017.43 1017.16 1016.91 1016.74 1016.65 1016.66 1016.74 1016.86 1016.97 1017.01 1016.94 1016.70 1016.26 1015.63 1014.79 1013.78 1012.61 1011.32 1009.91 1008.40 1006.78 1005.04 1003.15 1001.11 998.91 996.60 994.22 991.85 989.60 987.57 985.86 984.58 983.77 983.48 983.69 984.33 985.34 986.61 988.05 989.55 991.06 992.53 993.94
1016.02 1015.87 1015.76 1015.70 1015.73 1015.84 1016.03 1016.26 1016.50 1016.69 1016.78 1016.74 1016.50 1016.07 1015.44 1014.61 1013.61 1012.46 1011.18 1009.79 1008.27 1006.64 1004.86 1002.94 1000.86 998.63 996.30 993.91 991.56 989.36 987.40 985.78 984.60 983.91 983.73 984.04 984.78 985.86 987.19 988.68 990.21 991.75 993.23 994.65
1014.62 1014.61 1014.66 1014.79 1015.00 1015.27 1015.60 1015.93 1016.24 1016.47 1016.58 1016.53 1016.29 1015.84 1015.20 1014.38 1013.40 1012.27 1011.01 1009.64 1008.15 1006.54 1004.78 1002.87 1000.82 998.63 996.35 994.04 991.78 989.69 987.85 986.37 985.31 984.73 984.64 985.02 985.81 986.91 988.25 989.72 991.24 992.75 994.21 995.61
1013.53 1013.67 1013.88 1014.17 1014.52 1014.93 1015.35 1015.75 1016.08 1016.31 1016.40 1016.32 1016.04 1015.57 1014.91 1014.09 1013.12 1012.01 1010.79 1009.46 1008.01 1006.44 1004.74 1002.90 1000.92 998.83 996.67 994.50 992.40 990.48 988.81 987.48 986.56 986.09 986.08 986.50 987.29 988.38 989.67 991.08 992.54 994.00 995.41 996.77
1012.71 1012.98 1013.35 1013.78 1014.26 1014.75 1015.23 1015.66 1015.99 1016.19 1016.23 1016.10 1015.77 1015.27 1014.59 1013.76 1012.79 1011.71 1010.53 1009.24 1007.84 1006.34 1004.72 1002.97 1001.12 999.17 997.17 995.19 993.30 991.57 990.10 988.96 988.19 987.82 987.88 988.31 989.08 990.11 991.32 992.65 994.03 995.40 996.75 998.07
1012.07 1012.48 1012.98 1013.53 1014.10 1014.66 1015.17 1015.60 1015.90 1016.06 1016.05 1015.87 1015.49 1014.95 1014.26 1013.42 1012.47 1011.41 1010.26 1009.02 1007.68 1006.24 1004.71 1003.08 1001.36 999.58 997.78 996.01 994.34 992.84 991.59 990.63 990.01 989.75 989.85 990.29 991.02 991.98 993.10 994.33 995.61 996.91 998.19 999.45
1011.55 1012.08 1012.68 1013.33 1013.97 1014.57 1015.10 1015.51 1015.79 1015.91 1015.85 1015.63 1015.22 1014.66 1013.96 1013.13 1012.19 1011.16 1010.04 1008.84 1007.56 1006.19 1004.75 1003.23 1001.65 1000.04 998.44 996.89 995.46 994.19 993.14 992.37 991.89 991.73 991.88 992.32 993.00 993.88 994.92 996.05 997.24 998.45 999.67 1000.90
1011.09 1011.72 1012.40 1013.11 1013.80 1014.42 1014.95 1015.35 1015.60 1015.70 1015.62 1015.38 1014.97 1014.42 1013.73 1012.92 1012.01 1011.01 1009.93 1008.77 1007.53 1006.23 1004.86 1003.45 1002.01 1000.56 999.15 997.81 996.59 995.54 994.70 994.10 993.76 993.68 993.88 994.31 994.96 995.77 996.72 997.76 998.86 1000.01 1001.18 1002.36
1010.68 1011.36 1012.10 1012.84 1013.55 1014.18 1014.70 1015.09 1015.34 1015.43 1015.35 1015.12 1014.74 1014.22 1013.57 1012.81 1011.94 1010.99 1009.94 1008.82 1007.63 1006.38 1005.09 1003.77 1002.45 1001.15 999.91 998.76 997.75 996.90 996.24 995.79 995.57 995.58 995.81 996.24 996.84 997.60 998.47 999.44 1000.47 1001.56 1002.68 1003.84
1010.32 1011.03 1011.78 1012.53 1013.23 1013.85 1014.36 1014.75 1014.99 1015.09 1015.05 1014.86 1014.53 1014.06 1013.48 1012.78 1011.97 1011.07 1010.07 1009.00 1007.85 1006.66 1005.44 1004.20 1002.99 1001.83 1000.74 999.76 998.92 998.25 997.75 997.44 997.33 997.40 997.66 998.09 998.67 999.37 1000.18 1001.08 1002.05 1003.09 1004.18 1005.31
1010.05 1010.75 1011.48 1012.20 1012.88 1013.47 1013.96 1014.33 1014.58 1014.71 1014.70 1014.57 1014.30 1013.92 1013.41 1012.79 1012.06 1011.21 1010.28 1009.25 1008.16 1007.03 1005.88 1004.73 1003.62 1002.58 1001.63 1000.81 1000.12 999.60 999.24 999.05 999.03 999.16 999.45 999.87 1000.42 1001.07 1001.83 1002.67 1003.59 1004.58 1005.64 1006.74
1009.86 1010.54 1011.23 1011.90 1012.52 1013.07 1013.52 1013.88 1014.14 1014.28 1014.32 1014.24 1014.06 1013.75 1013.33 1012.80 1012.14 1011.37 1010.50 1009.54 1008.52 1007.45 1006.38 1005.32 1004.32 1003.39 1002.58 1001.89 1001.35 1000.96 1000.72 1000.63 1000.68 1000.86 1001.16 1001.57 1002.09 1002.71 1003.41 1004.20 1005.08 1006.02 1007.04 1008.12
1009.77 1010.40 1011.03 1011.63 1012.19 1012.68 1013.09 1013.42 1013.67 1013.83 1013.91 1013.89 1013.77 1013.55 1013.21 1012.76 1012.18 1011.50 1010.70 1009.82 1008.87 1007.89 1006.90 1005.94 1005.05 1004.24 1003.56 1003.00 1002.58 1002.31 1002.17 1002.16 1002.27 1002.48 1002.80 1003.20 1003.69 1004.26 1004.92 1005.66 1006.48 1007.39 1008.37 1009.41
1009.74 1010.32 1010.88 1011.41 1011.89 1012.31 1012.67 1012.97 1013.20 1013.38 1013.48 1013.51 1013.45 1013.30 1013.04 1012.66 1012.17 1011.57 1010.86 1010.06 1009.20 1008.31 1007.42 1006.58 1005.80 1005.12 1004.55 1004.12 1003.82 1003.64 1003.59 1003.64 1003.80 1004.03 1004.35 1004.73 1005.19 1005.73 1006.34 1007.03 1007.81 1008.67 1009.61 1010.61
1009.75 1010.27 1010.76 1011.21 1011.61 1011.97 1012.28 1012.54 1012.76 1012.93 1013.06 1013.12 1013.11 1013.02 1012.83 1012.53 1012.12 1011.60 1010.98 1010.28 1009.52 1008.73 1007.96 1007.23 1006.57 1006.01 1005.56 1005.24 1005.04 1004.95 1004.97 1005.08 1005.26 1005.50 1005.81 1006.18 1006.60 1007.10 1007.66 1008.31 1009.04 1009.86 1010.76 1011.71
1009.73 1010.20 1010.62 1011.01 1011.34 1011.64 1011.90 1012.13 1012.33 1012.51 1012.66 1012.76 1012.80 1012.76 1012.64 1012.41 1012.08 1011.65 1011.12 1010.51 1009.86 1009.19 1008.53 1007.92 1007.38 1006.94 1006.60 1006.38 1006.26 1006.24 1006.31 1006.45 1006.65 1006.90 1007.19 1007.53 1007.92 1008.37 1008.90 1009.50 1010.19 1010.96 1011.82 1012.73
1009.67 1010.08 1010.45 1010.76 1011.04 1011.29 1011.52 1011.74 1011.94 1012.13 1012.30 1012.44 1012.53 1012.56 1012.50 1012.35 1012.10 1011.76 1011.32 1010.82 1010.28 1009.72 1009.18 1008.68 1008.25 1007.92 1007.67 1007.53 1007.48 1007.52 1007.62 1007.78 1007.98 1008.22 1008.49 1008.80 1009.15 1009.56 1010.04 1010.60 1011.25 1011.98 1012.79 1013.67
Thickness
5410 5415 5414 5416 5422 5423 5420 5422 5423 5439 5443 5460 5461 5457 5457 5457 5456 5455 5455 5455 5456 5456 5455 5455 5454 5454 5453 5452 5452 5451 5450 5450 5450 5451 5451 5451 5451 5451 5450 5449 5448 5448 5447 5446
5399 5409 5407 5410 5418 5420 5419 5421 5423 5430 5438 5450 5448 5446 5446 5445 5446 5447 5447 5448 5448 5447 5447 5446 5446 5446 5445 5444 5444 5443 5442 5442 5441 5442 5442 5442 5442 5442 5441 5440 5439 5438 5437 5437
5392 5395 5399 5403 5417 5418 5416 5415 5417 5421 5435 5438 5437 5440 5439 5439 5439 5439 5440 5440 5439 5438 5438 5438 5438 5438 5437 5437 5436 5435 5435 5434 5434 5434 5434 5434 5434 5433 5433 5432 5431 5429 5428 5427
5377 5381 5389 5419 5416 5415 5414 5415 5412 5417 5422 5425 5428 5430 5430 5431 5431 5431 5431 5431 5431 5431 5430 5431 5430 5430 5430 5428 5428 5427 5427 5427 5426 5426 5426 5425 5425 5425 5424 5423 5421 5420 5419 5418
5369 5372 5385 5406 5409 5403 5401 5408 5411 5410 5415 5416 5415 5418 5424 5426 5424 5424 5424 5424 5423 5423 5422 5422 5422 5422 5421 5420 5420 5419 5419 5419 5418 5418 5418 5417 5416 5416 5415 5414 5412 5411 5409 5409
5363 5366 5376 5404 5404 5398 5398 5399 5407 5404 5405 5405 5404 5408 5420 5420 5417 5416 5415 5415 5414 5414 5413 5414 5414 5414 5413 5412 5412 5412 5412 5411 5411 5410 5410 5409 5408 5407 5406 5405 5404 5402 5401 5400
5358 5360 5373 5393 5390 5392 5389 5398 5402 5398 5397 5396 5395 5402 5406 5407 5407 5407 5406 5406 5406 5405 5405 5405 5405 5406 5405 5405 5405 5405 5404 5403 5403 5402 5401 5401 5399 5398 5397 5397 5395 5393 5392 5392
5347 5354 5374 5387 5380 5382 5389 5392 5392 5391 5390 5390 5391 5392 5393 5396 5397 5397 5397 5397 5397 5397 5396 5396 5396 5397 5397 5397 5397 5397 5396 5396 5395 5394 5393 5393 5391 5390 5389 5387 5386 5385 5383 5383
5358 5372 5378 5374 5376 5379 5379 5381 5384 5383 5384 5384 5384 5385 5386 5387 5387 5388 5388 5387 5387 5387 5386 5386 5387 5389 5389 5389 5389 5389 5389 5388 5387 5386 5385 5384 5383 5382 5380 5378 5377 5376 5375 5374
5349 5363 5368 5368 5368 5371 5373 5374 5377 5378 5379 5378 5378 5378 5378 5378 5378 5377 5378 5377 5377 5377 5377 5377 5378 5379 5380 5380 5380 5380 5380 5380 5380 5378 5377 5376 5375 5374 5372 5371 5369 5369 5367 5367
5344 5356 5360 5366 5365 5368 5370 5370 5371 5372 5372 5372 5371 5370 5370 5369 5369 5369 5369 5369 5369 5369 5369 5369 5370 5371 5371 5371 5371 5372 5372 5371 5371 5370 5369 5367 5367 5365 5365 5364 5363 5362 5360 5359
5351 5355 5352 5359 5363 5362 5363 5364 5365 5366 5366 5366 5364 5363 5362 5362 5361 5361 5361 5361 5361 5361 5361 5361 5362 5362 5363 5363 5363 5364 5364 5363 5362 5362 5360 5359 5358 5357 5357 5356 5356 5356 5354 5353
5346 5350 5350 5354 5356 5356 5356 5357 5358 5358 5358 5358 5357 5355 5355 5354 5354 5353 5354 5354 5354 5354 5354 5354 5355 5355 5356 5356 5356 5356 5356 5355 5354 5354 5353 5352 5351 5350 5349 5348 5348 5348 5347 5346
5340 5342 5344 5347 5347 5348 5348 5349 5349 5349 5349 5350 5349 5348 5347 5346 5346 5346 5346 5347 5347 5346 5346 5347 5347 5348 5348 5348 5348 5348 5348 5348 5348 5347 5346 5345 5344 5343 5342 5341 5339 5339 5339 5339
5335 5335 5336 5339 5339 5339 5340 5340 5340 5340 5341 5340 5339 5339 5339 5339 5339 5339 5338 5339 5339 5339 5339 5339 5340 5340 5341 5341 5341 5340 5340 5341 5341 5340 5340 5339 5338 5336 5335 5334 5332 5331 5331 5331
5330 5329 5328 5329 5331 5332 5331 5331 5331 5331 5331 5331 5330 5330 5331 5331 5331 5330 5330 5330 5331 5332 5332 5333 5334 5334 5334 5334 5334 5333 5333 5335 5335 5334 5333 5332 5331 5330 5328 5327 5326 5324 5324 5324
5322 5323 5323 5323 5324 5324 5323 5323 5323 5323 5322 5322 5322 5322 5322 5322 5322 5322 5322 5323 5324 5325 5325 5326 5327 5327 5327 5327 5327 5327 5327 5327 5328 5327 5326 5326 5325 5324 5323 5321 5320 5319 5318 5318
5318 5319 5319 5319 5318 5318 5317 5317 5316 5316 5315 5315 5315 5314 5314 5314 5315 5315 5315 5315 5316 5318 5319 5319 5320 5321 5321 5321 5321 5321 5320 5320 5320 5320 5320 5319 5319 5318 5317 5316 5315 5313 5312 5313
5312 5312 5313 5313 5312 5311 5311 5310 5310 5309 5309 5308 5307 5307 5307 5307 5307 5307 5308 5308 5310 5311 5312 5313 5315 5314 5314 5314 5315 5315 5315 5314 5314 5314 5314 5314 5313 5312 5311 5310 5309 5308 5307 5307
5306 5306 5305 5305 5305 5304 5304 5303 5303 5302 5302 5301 5301 5300 5300 5300 5300 5301 5301 5302 5304 5305 5306 5307 5307 5307 5308 5308 5309 5309 5309 5309 5308 5307 5307 5307 5306 5305 5305 5304 5303 5303 5302 5302
5299 5298 5298 5297 5297 5297 5296 5296 5296 5296 5296 5295 5295 5294 5294 5294 5294 5295 5296 5297 5299 5299 5300 5301 5301 5302 5302 5303 5304 5303 5303 5303 5302 5302 5302 5301 5301 5301 5300 5299 5299 5299 5299 5299
5290 5290 5290 5289 5289 5289 5288 5288 5289 5289 5288 5288 5288 5288 5288 5289 5289 5290 5290 5291 5293 5294 5295 5295 5296 5297 5297 5298 5298 5298 5298 5298 5298 5298 5297 5297 5297 5296 5296 5295 5295 5296 5296 5295
5284 5283 5283 5282 5281 5281 5281 5281 5281 5282 5281 5282 5282 5282 5283 5283 5284 5285 5286 5287 5288 5289 5290 5290 5292 5293 5294 5293 5293 5293 5293 5293 5294 5294 5294 5294 5293 5293 5292 5292 5292 5292 5292 5292
5277 5277 5276 5275 5275 5275 5275 5274 5274 5275 5275 5275 5276 5277 5277 5278 5280 5280 5281 5283 5284 5285 5286 5286 5288 5289 5289 5288 5288 5288 5289 5289 5289 5290 5290 5290 5290 5289 5289 5289 5289 5289 5289 5289
5271 5270 5269 5269 5270 5270 5270 5269 5269 5269 5269 5270 5271 5272 5272 5274 5275 5276 5277 5278 5280 5281 5281 5282 5284 5284 5283 5283 5283 5283 5283 5284 5284 5285 5285 5285 5285 5285 5286 5286 5286 5286 5286 5286
5265 5265 5265 5265 5265 5265 5265 5265 5265 5265 5265 5266 5267 5267 5268 5269 5270 5271 5272 5273 5274 5276 5276 5277 5277 5277 5277 5277 5277 5278 5278 5279 5279 5280 5280 5281 5281 5282 5282 5282 5283 5283 5283 5283
5261 5261 5261 5262 5262 5262 5262 5261 5261 5261 5261 5261 5262 5263 5263 5264 5265 5265 5266 5267 5269 5270 5270 5271 5271 5271 5271 5272 5272 5273 5273 5274 5274 5275 5276 5277 5277 5278 5279 5279 5280 5280 5280 5280